Weather History for Kotzebue, AK

Change the Weather History Date:

Monday, October 8, 2012

  Actual Average Record
Temperature  
Mean Temperature 34 °F 30 °F  
Max Temperature 36 °F 34 °F 44 °F (1969)
Min Temperature 32 °F 25 °F 10 °F (1960)
Degree Days  
Heating Degree Days 31 36  
Month to date heating degree days 207 267  
Since 1 July heating degree days 1678 1685  
Cooling Degree Days 0    
Month to date cooling degree days 0  
Year to date cooling degree days 0  
Moisture  
Dew Point 27 °F    
Average Humidity 0    
Maximum Humidity 0    
Minimum Humidity 0    
Precipitation  
Precipitation 0.00 in 0.04 in 0.40 in (2006)
Month to date precipitation 1.09 0.34  
Year to date precipitation 13.12 8.80  
Snow  
Snow 0.00 in 0.20 in 1.80 in (1956)
Month to date snowfall 0.3 1.1  
Since 1 July snowfall 0.3 1.9  
Since 1 September snowfall 0.3 1.9  
Snow Depth 0.00 in    
Sea Level Pressure  
Sea Level Pressure 30.41 in    
Wind  
Wind Speed 14 mph (North)    
Max Wind Speed 26 mph    
Max Gust Speed 30 mph    
Visibility 10 miles    
Events      
T = Trace of Precipitation, MM = Missing Value Source: NWS Daily Summary

Daily Weather History Graph

Daily Weather History Graph

Search for Another Location

Airport:

Trip Planner

Search our weather history database for the weather conditions in past years. The results will help you decide how hot, cold, wet, or windy it might be!

Date:

Astronomy

Oct. 08, 2012 Rise Set
Actual Time 9:28 AM AKDT 7:45 PM AKDT
Civil Twilight 8:34 AM AKDT 8:38 PM AKDT
Nautical Twilight 7:33 AM AKDT 9:40 PM AKDT
Astronomical Twilight 6:27 AM AKDT 10:44 PM AKDT
Moon No Moon Rise 6:21 PM AKDT (10/8)
Length of Visible Light 12h 03m
Length of Day
10h 17m
Last Quarter, 45% of the Moon is Illuminated
Oct 8
Last Quarter
Oct 15
New
Oct 21
First Quarter
Oct 29
Full
Nov 6
Last Quarter

Hourly Weather History & Observations

Time (AKDT) Temp. Windchill Dew Point Humidity Pressure Visibility Wind Dir Wind Speed Gust Speed Precip Events Conditions
12:32 AM 35.6 °F 29.2 °F 33.8 °F 93% 30.27 in 10.0 mi NNW 8.1 mph - N/A   Overcast
12:53 AM 36.0 °F 28.5 °F 33.1 °F 89% 30.27 in 10.0 mi NW 10.4 mph - N/A   Overcast
1:53 AM 36.0 °F 29.0 °F 32.0 °F 86% 30.28 in 10.0 mi NW 9.2 mph - N/A   Overcast
2:53 AM 36.0 °F 28.5 °F 32.0 °F 86% 30.28 in 10.0 mi NNW 10.4 mph - N/A   Overcast
3:53 AM 35.1 °F 27.9 °F 30.9 °F 85% 30.29 in 10.0 mi NNW 9.2 mph - N/A   Mostly Cloudy
4:53 AM 35.1 °F 26.4 °F 32.0 °F 89% 30.29 in 10.0 mi North 12.7 mph - N/A   Overcast
5:53 AM 35.1 °F 25.9 °F 30.9 °F 85% 30.30 in 10.0 mi North 13.8 mph - N/A   Overcast
6:53 AM 34.0 °F 23.8 °F 30.9 °F 89% 30.31 in 10.0 mi NNW 16.1 mph - N/A   Overcast
7:53 AM 34.0 °F 22.4 °F 28.9 °F 82% 30.32 in 10.0 mi North 20.7 mph - N/A   Overcast
8:53 AM 34.0 °F 21.8 °F 28.0 °F 79% 30.34 in 10.0 mi North 23.0 mph 28.8 mph N/A   Partly Cloudy
9:53 AM 33.1 °F 20.6 °F 28.0 °F 82% 30.37 in 10.0 mi North 23.0 mph - N/A   Scattered Clouds
10:53 AM 33.1 °F 20.6 °F 27.0 °F 78% 30.39 in 10.0 mi North 23.0 mph - N/A   Scattered Clouds
11:53 AM 33.1 °F 20.9 °F 26.1 °F 75% 30.41 in 10.0 mi North 21.9 mph 28.8 mph N/A   Scattered Clouds
12:53 PM 34.0 °F 22.1 °F 26.1 °F 73% 30.43 in 10.0 mi North 21.9 mph - N/A   Scattered Clouds
1:53 PM 34.0 °F 22.1 °F 26.1 °F 73% 30.45 in 10.0 mi North 21.9 mph - N/A   Scattered Clouds
2:53 PM 35.1 °F 23.3 °F 26.1 °F 70% 30.45 in 10.0 mi North 23.0 mph - N/A   Scattered Clouds
3:53 PM 36.0 °F 25.0 °F 25.0 °F 64% 30.47 in 10.0 mi North 20.7 mph - N/A   Scattered Clouds
4:53 PM 36.0 °F 26.3 °F 26.1 °F 67% 30.48 in 10.0 mi North 16.1 mph - N/A   Scattered Clouds
5:53 PM 36.0 °F 25.3 °F 23.0 °F 59% 30.49 in 10.0 mi North 19.6 mph - N/A   Scattered Clouds
6:53 PM 34.0 °F 23.0 °F 25.0 °F 70% 30.51 in 10.0 mi North 18.4 mph - N/A   Scattered Clouds
7:53 PM 34.0 °F 24.6 °F 24.1 °F 67% 30.53 in 10.0 mi NNE 13.8 mph - N/A   Partly Cloudy
8:53 PM 32.0 °F 21.6 °F 21.9 °F 66% 30.54 in 10.0 mi North 15.0 mph - N/A   Partly Cloudy
9:53 PM 30.9 °F 20.2 °F 21.9 °F 69% 30.56 in 10.0 mi NNE 15.0 mph - N/A   Partly Cloudy
10:53 PM 30.9 °F 20.7 °F 21.0 °F 67% 30.57 in 10.0 mi NNE 13.8 mph - N/A   Partly Cloudy
11:53 PM 30.2 °F 19.3 °F 21.2 °F 69% 30.58 in 10.0 mi NNE 15.0 mph - N/A   Partly Cloudy